Chadron, NE

2:24 AM MST on November 19, 2017 (GMT -0700)
Chadron Municipal

Weather History for KCDR - October, 2013

Change the Weather History Date:

Sunday, October 13, 2013

  Actual Average Record
Temperature  
Mean Temperature 54 °F 49 °F  
Max Temperature 65 °F 65 °F 88 °F (1958)
Min Temperature 43 °F 32 °F 16 °F (2006)
Degree Days  
Heating Degree Days 11 16  
Month to date heating degree days 197 182  
Since 1 July heating degree days 287 393  
Cooling Degree Days 0 0  
Month to date cooling degree days 0 0  
Year to date cooling degree days 917 710  
Growing Degree Days 4 (Base 50)    
Moisture  
Dew Point 40 °F    
Average Humidity 62    
Maximum Humidity 76    
Minimum Humidity 48    
Precipitation  
Precipitation 0.13 in 0.04 in 1.09 in (1942)
Month to date precipitation 0.86 0.62  
Year to date precipitation 15.91 16.22  
Sea Level Pressure  
Sea Level Pressure 30.08 in    
Wind  
Wind Speed 15 mph (South)    
Max Wind Speed 44 mph    
Max Gust Speed 53 mph    
Visibility 10 miles    
Events Rain , Thunderstorm    
T = Trace of Precipitation, MM = Missing Value Source: NWS Daily Summary

Daily Weather History Graph

Daily Weather History Graph

Search for Another Location

Airport or City:

Trip Planner

Search our weather history database for the weather conditions in past years. The results will help you decide how hot, cold, wet, or windy it might be!

Date:

Astronomy

Oct. 13, 2013 Rise Set
Actual Time 7:03 AM MDT 6:12 PM MDT
Civil Twilight 6:35 AM MDT 6:41 PM MDT
Nautical Twilight 6:02 AM MDT 7:13 PM MDT
Astronomical Twilight 5:29 AM MDT 7:46 PM MDT
Moon 3:12 PM MDT (10/13) 1:08 AM MDT (10/13)
Length of Visible Light 12h 05m
Length of Day
11h 08m
Waxing Gibbous, 70% of the Moon is Illuminated
Oct 13
Waxing Gibbous
Oct 18
Full
Oct 26
Last Quarter
Nov 3
New
Nov 9
First Quarter

Hourly Weather History & Observations

Time (MDT) Temp. Windchill Dew Point Humidity Pressure Visibility Wind Dir Wind Speed Gust Speed Precip Events Conditions
12:53 AM 50.0 °F - 37.0 °F 61% 30.17 in 10.0 mi Variable 3.5 mph - N/A   Overcast
1:53 AM 48.9 °F - 37.0 °F 64% 30.19 in 10.0 mi West 5.8 mph - N/A   Overcast
2:53 AM 48.0 °F - 37.0 °F 66% 30.18 in 10.0 mi SSW 5.8 mph - N/A   Overcast
3:53 AM 48.0 °F - 37.0 °F 66% 30.19 in 10.0 mi Variable 5.8 mph - N/A   Mostly Cloudy
4:53 AM 45.0 °F 39.7 °F 37.0 °F 74% 30.19 in 10.0 mi SW 10.4 mph - N/A   Clear
5:53 AM 45.0 °F 39.7 °F 37.0 °F 74% 30.19 in 10.0 mi SSE 10.4 mph - N/A   Mostly Cloudy
6:53 AM 46.0 °F 41.0 °F 37.0 °F 71% 30.20 in 10.0 mi South 10.4 mph - N/A   Partly Cloudy
7:53 AM 46.9 °F - 37.0 °F 68% 30.22 in 10.0 mi South 11.5 mph - N/A   Clear
8:53 AM 50.0 °F - 37.0 °F 61% 30.20 in 10.0 mi SW 9.2 mph - N/A   Partly Cloudy
9:53 AM 52.0 °F - 37.0 °F 57% 30.18 in 10.0 mi South 15.0 mph 20.7 mph N/A   Clear
10:53 AM 57.9 °F - 39.9 °F 51% 30.15 in 10.0 mi SSW 13.8 mph 23.0 mph N/A   Clear
11:53 AM 60.1 °F - 41.0 °F 49% 30.13 in 10.0 mi SSW 19.6 mph 28.8 mph N/A   Clear
12:53 PM 63.0 °F - 43.0 °F 48% 30.09 in 10.0 mi SSW 18.4 mph 26.5 mph N/A   Clear
1:53 PM 64.0 °F - 44.1 °F 48% 30.05 in 10.0 mi South 20.7 mph 26.5 mph N/A   Clear
2:53 PM 64.0 °F - 45.0 °F 50% 30.03 in 10.0 mi South 18.4 mph 27.6 mph N/A   Clear
3:53 PM 64.0 °F - 45.0 °F 50% 30.02 in 10.0 mi South 13.8 mph 21.9 mph N/A   Clear
4:53 PM 63.0 °F - 44.1 °F 50% 30.01 in 10.0 mi SSE 15.0 mph - N/A   Clear
5:53 PM 62.1 °F - 43.0 °F 50% 30.01 in 10.0 mi SSE 16.1 mph 23.0 mph N/A   Clear
6:53 PM 57.9 °F - 42.1 °F 56% 30.03 in 10.0 mi ESE 4.6 mph - N/A   Clear
7:53 PM 57.0 °F - 39.0 °F 51% 30.01 in 10.0 mi SSE 18.4 mph 24.2 mph N/A   Clear
8:53 PM 55.9 °F - 37.9 °F 51% 30.01 in 10.0 mi SSE 23.0 mph 29.9 mph N/A   Clear
9:53 PM 55.9 °F - 39.0 °F 53% 29.97 in 10.0 mi South 29.9 mph 35.7 mph N/A   Mostly Cloudy
10:42 PM 57.2 °F - 39.2 °F 51% 29.94 in 10.0 mi SE 21.9 mph 31.1 mph N/A Thunderstorm Thunderstorm
10:53 PM 55.9 °F - 41.0 °F 57% 29.91 in 10.0 mi SSE 33.4 mph 46.0 mph 0.00 in Rain , Thunderstorm Light Rain
11:06 PM 55.4 °F - 42.8 °F 63% 29.94 in 10.0 mi South 41.4 mph 52.9 mph 0.00 in Rain Light Rain
11:46 PM 50.0 °F - 46.4 °F 87% 29.96 in 5.0 mi SSE 23.0 mph 32.2 mph 0.03 in Rain , Thunderstorm Light Thunderstorms and Rain
11:53 PM 50.0 °F - 46.9 °F 89% 29.94 in 8.0 mi SE 17.3 mph 29.9 mph 0.04 in Rain , Thunderstorm Light Thunderstorms and Rain